Volver al catálogo

FENGYUN 1C DEB

ActivoPO
NORAD 30418·DEBRIS·🇨🇳 China

Lanzado May 10, 1999 desde Taiyuan Satellite Launch Center

Loading…

Próximos Pases (próximas 24 horas)

TLE

ActualizadoSource: Space-Track

Época: Sep 14, 2026, 19:26 UTC

1 30418U 99025AEH 26257.81034100  .00003330  00000-0  33823-3 0  9991
2 30418  98.8514  93.6430 0102924 315.0655  56.0901 14.87802814 46937

Sigue FENGYUN 1C DEB en tiempo real con AllMySat

Download on the App Store